Current Version              Previous Version:    01  02  03  04  05  06  07  08  09  10  11  12  13  14  15  16  17  18  19  20  21  22  23  24  25  26  27  28  29  30  
   31  32  33  34  35  36  37  38  39  40  41  42  43  44  45  46  47  48  49  50  51  52  53  54  55  56  57  58  59  60  

[Printable]
262
ASUS44 KFWD 282103
RWRTX
NORTH TEXAS HOURLY WEATHER ROUNDUP
NATIONAL WEATHER SERVICE FORT WORTH TX
300 PM CST WED JAN 28 2015

NOTE: "FAIR" INDICATES FEW OR NO CLOUDS BELOW 12,000 FEET WITH NO
SIGNIFICANT WEATHER AND/OR OBSTRUCTIONS TO VISIBILITY.

TXZ118-119-282200-
DALLAS/FORT WORTH METROPLEX

CITY           SKY/WX    TMP DP  RH WIND       PRES   REMARKS
DFW AIRPORT    PTSUNNY   78  40  25 S20       29.99F
DALLAS LOVE    PTSUNNY   80  40  23 S15       29.99F
FTW MEACHAM    CLOUDY    80  46  30 S14       29.98F
DAL-EXECUTIVE  PTSUNNY   81  39  22 S7G21     30.00F
FTW-ALLIANCE   CLOUDY    78  43  28 S15       29.98F
FTW-SPINKS     SUNNY     81  39  22 S21       30.01F
ARLINGTON      PTSUNNY   79  41  25 S10G21    30.00F
GRAND PRAIRIE  SUNNY     77  46  33 S14       30.02F
MESQUITE       SUNNY     81  37  21 S17G23    30.02F
LANCASTER      PTSUNNY   77  37  23 S14G25    30.03S
$$

TXZ091>094-102>105-117-120-121-131>134-282200-
NORTH CENTRAL TEXAS

CITY           SKY/WX    TMP DP  RH WIND       PRES   REMARKS
SHRMAN/DENISON PTSUNNY   78  46  32 S16       29.98F
BRIDGEPORT     CLOUDY    80  46  29 SW14G20   29.99F
DECATUR        CLOUDY    79  34  20 SW15G21   29.98F
DENTON         PTSUNNY   78  39  24 S18G24    29.98F
MCKINNEY       MOSUNNY   77  38  24 S21G28    29.98F
GREENVILLE     MOSUNNY   77  36  22 S16G22    30.01F
ROCKWALL       MOSUNNY   79  41  25 S20G25    30.00S
TERRELL        MOSUNNY   81  43  26 S20       30.01F
WAXAHACHIE     PTSUNNY   79  46  30 S17       30.03S
CLEBURNE       PTSUNNY   81  36  19 S17       30.02S
GRANBURY       CLOUDY    83  37  19 S14       30.00F
$$

TXZ083>090-098>101-113>116-127>130-139>142-154-155-282200-
WESTERN NORTH TEXAS

CITY           SKY/WX    TMP DP  RH WIND       PRES   REMARKS
WICHITA FALLS  PTSUNNY   75  45  34 SW15G28   29.92F
WF-KICKAPOO    CLOUDY   N/A N/A N/A SW9G16    29.94F
VERNON         MOSUNNY   82  33  17 S16       29.90F
ABILENE        MOSUNNY   80  44  27 SW14      30.01F
ABILENE-DYESS  MOSUNNY   80  48  32 SW14      30.00F
MINERAL WELLS  CLOUDY    78  40  25 S15       29.98F
STEPHENVILLE   PTSUNNY   78  35  21 S10G20    30.04F
COMANCHE       PTSUNNY   82  41  23 S14G20    30.02F
BROWNWOOD      MOSUNNY   82  37  20 S13       30.02F
COLEMAN        SUNNY     81  47  30 SW15G23   30.03F
BRADY          SUNNY     82  34  17 S16       30.05F
$$

TXZ143>147-156>162-174-175-282200-
CENTRAL TEXAS

CITY           SKY/WX    TMP DP  RH WIND       PRES   REMARKS
WACO           SUNNY     79  43  27 S17       30.04F
WACO-TSTC      SUNNY     82  41  23 S17       30.08S
CORSICANA      MOSUNNY   82  38  20 S17G24    30.04F
MEXIA          SUNNY     80  41  25 S17       30.05F
HEARNE         SUNNY     80  42  26 SE17      30.08F
CAMERON        SUNNY     80  41  24 S15G21    30.07F
TEMPLE         SUNNY     81  45  28 S22       30.05S
KILLEEN        SUNNY     80  34  19 S16G23    30.06F
FORT HOOD      SUNNY     82  36  19 S17G25    30.05F
HAMILTON       SUNNY     82  35  18 S23G33    30.04F
LAMPASAS       SUNNY     81  39  22 S14       30.04F
$$

TXZ095>097-106>112-122>126-135>138-148>153-164>167-282200-
EAST TEXAS

CITY           SKY/WX    TMP DP  RH WIND       PRES   REMARKS
PARIS          MOSUNNY   79  41  25 S20G26    30.01F
SULPHUR SPRNGS MOSUNNY   79  38  23 S20       30.03F
MOUNT PLEASANT MOSUNNY   78  43  28 S13G22    30.05F
GILMER         MOSUNNY   77  45  31 S12G17    30.05F
MINEOLA        SUNNY     79  39  24 S13       30.04F
TYLER          SUNNY     79  44  28 S14G22    30.05F
LONGVIEW       PTSUNNY   78  44  29 S13       30.06F
MARSHALL       MOSUNNY   78  43  28 S15G22    30.09F
PALESTINE      SUNNY     79  44  29 S12G17    30.08F
JACKSONVILLE   SUNNY     77  40  27 CALM      30.10F
HENDERSON      MOSUNNY   77  44  30 S10G18    30.09F
NACOGDOCHES    MOSUNNY   75  45  33 S12G22    30.11F
LUFKIN         SUNNY     79  45  29 S9        30.11F
$$

SUPPLEMENTAL OBSERVATIONS (CENTRAL)

CITY           SKY/WX    TMP DP  RH WIND       PRES   REMARKS
$$

SUPPLEMENTAL OBSERVATIONS (WEST)

CITY           SKY/WX    TMP DP  RH WIND       PRES   REMARKS
$$

SUPPLEMENTAL OBSERVATIONS (EAST)

CITY           SKY/WX    TMP DP  RH WIND       PRES   REMARKS
$$

SUPPLEMENTAL OBSERVATIONS ARE A COLLECTION OF AUTOMATED INSTRUMENTS
THAT ARE MAINTAINED BY A VARIETY OF FEDERAL AND STATE AGENCIES.
CERTAIN ELEMENTS...SUCH AS HUMIDITY VALUES AND SUSTAINED WIND
SPEEDS...MAY BE APPROXIMATED.